Content
SEND FEEDBACK

Daily
Averages
Monthly
Summary
Canada

STEVESTON, BRITISH COLUMBIA


Home > North America > Canada > British Columbia
Elevation: 7 feet     Latitude: 49 10N     Longitude: 123 10W

WEATHER
 
SELECT A DAY
Number of Records: 255,153;   Date Range: 5/15/97 - 12/26/14
 
SHARE

PRINT THIS DATA

[ ← Previous Day ]
WEATHER ALMANAC - FEBRUARY 12, 2013
[ Next Day → ]
[ °C ]   °F
Weather ElementAverageHighLow
Temperature45.7 °F48.2 °F (7:55 pm)44.6 °F (12:35 am)
Dewpoint42.3 °F44.6 °F (4:15 pm)39.2 °F (11:35 pm)
Humidity87.8 %93 % (12:35 am)71 % (11:35 pm)
Barometer30.30 in30.36 in (9:35 am)30.21 in (10:35 pm)
Wind Speed8.6 mph13.8 mph (1:35 pm)
Wind Gust20.7 mph (10:35 pm)
Weather ElementAverage
Visibility9.9 mi
Wind DirectionSSW (188 °)

Weather ElementTotal
Precipitation---
Heating Degree Days18.6 (Base 65)
Averaged from 66 records on February 12, 2013
WEATHER CONDITIONS BREAKOUT
WIND DIRECTION BREAKOUT
WEATHER BY HOUR - FEBRUARY 12, 2013
[ °C ]   °F
Local TimeTemperatureDewpointHumidityBarometerVisibilityWind DirectionWind SpeedGust SpeedPrecipitationEventsConditions
12:35 AM44.6 °F42.8 °F93 %30.31 in10.0 miSSW (200°)6.9 mphOvercast
1:15 AM44.6 °F42.8 °F93 %30.31 in10.0 miSouth (190°)4.6 mphScattered Clouds
1:35 AM44.6 °F42.8 °F93 %30.31 in10.0 miSouth (190°)6.9 mphMostly Cloudy
1:55 AM44.6 °F42.8 °F93 %30.31 in10.0 miSouth (180°)4.6 mphMostly Cloudy
2:15 AM44.6 °F42.8 °F93 %30.32 in10.0 miSouth (180°)6.9 mphMostly Cloudy
2:35 AM44.6 °F42.8 °F93 %30.32 in10.0 miSouth (190°)8.1 mphOvercast
2:55 AM44.6 °F42.8 °F93 %30.32 in10.0 miSouth (180°)4.6 mphMostly Cloudy
3:35 AM44.6 °F42.8 °F93 %30.32 in10.0 miSouth (190°)8.1 mphOvercast
3:55 AM44.6 °F41.0 °F87 %30.32 in10.0 miSouth (190°)6.9 mphScattered Clouds
4:15 AM44.6 °F41.0 °F87 %30.31 in10.0 miSouth (170°)4.6 mphMostly Cloudy
4:35 AM44.6 °F41.0 °F87 %30.31 in10.0 miSouth (170°)5.8 mphMostly Cloudy
4:55 AM44.6 °F41.0 °F87 %30.31 in10.0 miSouth (170°)4.6 mphMostly Cloudy
5:15 AM44.6 °F41.0 °F87 %30.31 in10.0 miSouth (170°)4.6 mphMostly Cloudy
5:35 AM44.6 °F41.0 °F87 %30.32 in10.0 miSouth (180°)6.9 mphMostly Cloudy
5:55 AM44.6 °F41.0 °F87 %30.31 in10.0 miSouth (170°)5.8 mphScattered Clouds
6:15 AM44.6 °F41.0 °F87 %30.32 in10.0 miSouth (190°)8.1 mphScattered Clouds
6:35 AM44.6 °F41.0 °F87 %30.32 in10.0 miSouth (190°)12.7 mph16.1 mphPartly Cloudy
6:55 AM44.6 °F41.0 °F87 %30.33 in10.0 miSouth (180°)9.2 mphMostly Cloudy
7:15 AM44.6 °F41.0 °F87 %30.32 in10.0 miSouth (180°)10.4 mphMostly Cloudy
7:35 AM44.6 °F41.0 °F87 %30.33 in10.0 miSouth (180°)6.9 mph18.4 mphScattered Clouds
7:55 AM44.6 °F41.0 °F87 %30.34 in10.0 miSouth (170°)5.8 mphPartly Cloudy
8:15 AM44.6 °F41.0 °F87 %30.34 in10.0 miSouth (180°)8.1 mphMostly Cloudy
8:35 AM44.6 °F41.0 °F87 %30.35 in10.0 miSouth (190°)8.1 mphPartly Cloudy
8:55 AM44.6 °F41.0 °F87 %30.35 in10.0 miSouth (190°)10.4 mphClear
9:15 AM44.6 °F41.0 °F87 %30.35 in10.0 miSouth (170°)5.8 mphClear
9:35 AM44.6 °F41.0 °F87 %30.36 in10.0 miSouth (190°)10.4 mphClear
9:55 AM44.6 °F41.0 °F87 %30.36 in10.0 miSouth (180°)8.1 mphClear
10:15 AM44.6 °F41.0 °F87 %30.35 in10.0 miSouth (180°)8.1 mphRainLight Rain
10:35 AM44.6 °F42.8 °F93 %30.35 in10.0 miSSW (200°)11.5 mphPartly Cloudy
10:55 AM44.6 °F42.8 °F93 %30.35 in9.0 miSouth (190°)9.2 mphRainLight Rain
11:15 AM44.6 °F42.8 °F93 %30.36 in10.0 miSouth (190°)11.5 mphMostly Cloudy
11:35 AM44.6 °F42.8 °F93 %30.36 in10.0 miSouth (190°)11.5 mph16.1 mphOvercast
11:55 AM44.6 °F42.8 °F93 %30.35 in8.0 miSouth (190°)10.4 mph16.1 mphMostly Cloudy
12:15 PM44.6 °F42.8 °F93 %30.35 in9.0 miSouth (190°)11.5 mphRainLight Rain
12:35 PM44.6 °F42.8 °F93 %30.33 in10.0 miSSW (200°)12.7 mphScattered Clouds
12:55 PM44.6 °F42.8 °F93 %30.31 in10.0 miSouth (180°)10.4 mph18.4 mphMostly Cloudy
1:15 PM46.4 °F42.8 °F87 %30.30 in10.0 miSouth (190°)9.2 mph17.3 mphScattered Clouds
1:35 PM46.4 °F42.8 °F87 %30.30 in10.0 miSSW (200°)13.8 mphPartly Cloudy
1:55 PM46.4 °F42.8 °F87 %30.30 in10.0 miSouth (190°)10.4 mph16.1 mphScattered Clouds
2:15 PM46.4 °F42.8 °F87 %30.29 in10.0 miSouth (190°)9.2 mphMostly Cloudy
2:35 PM46.4 °F42.8 °F87 %30.30 in10.0 miSouth (190°)6.9 mphMostly Cloudy
3:15 PM46.4 °F42.8 °F87 %30.30 in10.0 miSouth (190°)6.9 mphOvercast
3:35 PM46.4 °F42.8 °F87 %30.30 in10.0 miSSW (200°)9.2 mphOvercast
3:55 PM46.4 °F42.8 °F87 %30.30 in10.0 miSSW (200°)11.5 mph16.1 mphOvercast
4:15 PM46.4 °F44.6 °F93 %30.29 in10.0 miSouth (190°)12.7 mphOvercast
4:35 PM46.4 °F44.6 °F93 %30.27 in10.0 miSouth (190°)11.5 mphMostly Cloudy
4:55 PM46.4 °F44.6 °F93 %30.27 in10.0 miSSE (160°)4.6 mphMostly Cloudy
5:15 PM46.4 °F44.6 °F93 %30.27 in10.0 miSouth (180°)6.9 mphMostly Cloudy
5:35 PM46.4 °F44.6 °F93 %30.26 in10.0 miSouth (170°)4.6 mphMostly Cloudy
6:15 PM46.4 °F44.6 °F93 %30.25 in10.0 miSouth (170°)5.8 mphScattered Clouds
6:35 PM46.4 °F42.8 °F87 %30.24 in10.0 miSouth (190°)9.2 mphMostly Cloudy
6:55 PM46.4 °F42.8 °F87 %30.23 in10.0 miSouth (180°)8.1 mphPartly Cloudy
7:15 PM46.4 °F44.6 °F93 %30.24 in10.0 miSouth (190°)9.2 mphPartly Cloudy
7:35 PM46.4 °F42.8 °F87 %30.24 in10.0 miSSW (200°)10.4 mph17.3 mphPartly Cloudy
7:55 PM48.2 °F42.8 °F82 %30.23 in10.0 miSouth (190°)6.9 mphScattered Clouds
8:15 PM48.2 °F42.8 °F82 %30.23 in10.0 miSSW (200°)11.5 mph18.4 mphMostly Cloudy
8:35 PM48.2 °F42.8 °F82 %30.23 in10.0 miSSW (200°)11.5 mphMostly Cloudy
8:55 PM48.2 °F42.8 °F82 %30.23 in10.0 miSouth (190°)9.2 mphOvercast
9:15 PM48.2 °F42.8 °F82 %30.23 in10.0 miSSW (210°)10.4 mph17.3 mphMostly Cloudy
9:35 PM48.2 °F42.8 °F82 %30.23 in10.0 miSouth (190°)6.9 mphMostly Cloudy
9:55 PM48.2 °F42.8 °F82 %30.24 in10.0 miSouth (190°)8.1 mphMostly Cloudy
10:15 PM48.2 °F44.6 °F87 %30.24 in10.0 miSouth (190°)10.4 mphMostly Cloudy
10:35 PM48.2 °F42.8 °F82 %30.21 in10.0 miSSW (210°)13.8 mph20.7 mphScattered Clouds
11:15 PM48.2 °F41.0 °F76 %30.23 in10.0 miSSW (210°)12.7 mph18.4 mphPartly Cloudy
11:35 PM48.2 °F39.2 °F71 %30.25 in10.0 miSW (220°)6.9 mph20.7 mphClear
11:55 PM48.2 °F39.2 °F71 %30.24 in10.0 miSW (220°)9.2 mph19.6 mphClear
Hourly data recorded from CZBB, located miles away from Steveston, British Columbia







STORIES FROM OUR PARTNERS